GORIZONT 26 [-]

Last updated on Oct. 25, 2020, 5:56 a.m. UTC

1 22041U 92043A   20298.48598993 -.00000027  00000-0  00000+0 0  9992
2 22041  14.9376   0.5313 0029917 222.3981 187.4226  0.99244281103034
UTC
Height (km)
Latitude
Longitude
Inclination
Orbital Period
UTC large
Height (km)
Speed (km/s)
/
Latitude / Longitude
Inclination (degrees)
Orbital Period (minutes)
Azimuth
Elevation
Range (km)
Doppler Factor
iOS Compass Heading
iOS Angle

Next 30 passes for location: Hong Kong

Rise time Rise Azimuth (degrees) Set time Set Azimuth (degrees) Duration Max altitude (degrees)

No matching passes for this satellites